• en France
  • Liste des pays
  • À 7 jours
  • Température de l'eau
  • Carte satellitaire
  • Carte météo
  • Widgets météo
  • user-avatar
    Se connecter

    Météo par heure à Győr

    Ce jour, 16 Janvier, Mardi

    Heure Température Précipitation Vent Pression Humidité
    00:00 -5°C° 0 mm 6 m/s 753 mmHg 75%
    01:00 -4°C° 0 mm 4 m/s 753 mmHg 73%
    02:00 -5°C° 0 mm 5 m/s 752 mmHg 74%
    03:00 -5°C° 0 mm 6 m/s 750 mmHg 75%
    04:00 -6°C° 0 mm 7 m/s 749 mmHg 77%
    05:00 -6°C° 0 mm 7 m/s 749 mmHg 78%
    06:00 -5°C° 0 mm 6 m/s 748 mmHg 78%
    07:00 -5°C° 0 mm 5 m/s 747 mmHg 78%
    08:00 -5°C° 0,1 mm 5 m/s 747 mmHg 78%
    09:00 -4°C° 0,1 mm 5 m/s 746 mmHg 79%
    10:00 -4°C° 0,1 mm 5 m/s 745 mmHg 79%
    11:00 -4°C° 0,2 mm 5 m/s 744 mmHg 80%
    12:00 -2°C° 0,2 mm 5 m/s 743 mmHg 82%
    13:00 -2°C° 0 mm 4 m/s 743 mmHg 82%
    14:00 -1°C° 0,1 mm 4 m/s 742 mmHg 82%
    15:00 -1°C° 0,1 mm 4 m/s 741 mmHg 82%
    16:00 -1°C° 0,1 mm 4 m/s 741 mmHg 83%
    17:00 0°C° 0 mm 4 m/s 740 mmHg 84%
    18:00 +1°C° 0 mm 3 m/s 740 mmHg 86%
    19:00 +1°C° 0 mm 3 m/s 739 mmHg 87%
    20:00 +1°C° 0,1 mm 3 m/s 739 mmHg 87%
    21:00 +2°C° 0,1 mm 2 m/s 739 mmHg 88%
    22:00 +2°C° 0,1 mm 2 m/s 739 mmHg 89%
    23:00 +2°C° 0,1 mm 2 m/s 739 mmHg 87%

    Demain, 17 Janvier, Mercredi

    Heure Température Précipitation Vent Pression Humidité
    00:00 +2°C° 0,1 mm 2 m/s 739 mmHg 86%
    01:00 +3°C° 0,1 mm 2 m/s 739 mmHg 84%
    02:00 +2°C° 0,1 mm 2 m/s 738 mmHg 85%
    03:00 +2°C° 0,1 mm 2 m/s 738 mmHg 86%
    04:00 +3°C° 0,1 mm 1 m/s 737 mmHg 87%
    05:00 +3°C° 0,3 mm 1 m/s 737 mmHg 88%
    06:00 +3°C° 0,3 mm 1 m/s 736 mmHg 89%
    07:00 +3°C° 0,3 mm 1 m/s 736 mmHg 89%
    08:00 +3°C° 0,1 mm 1 m/s 736 mmHg 88%
    09:00 +4°C° 0,1 mm 1 m/s 736 mmHg 87%
    10:00 +3°C° 0,1 mm 2 m/s 736 mmHg 86%
    11:00 +3°C° 0,1 mm 3 m/s 736 mmHg 82%
    12:00 +3°C° 0,1 mm 4 m/s 736 mmHg 78%
    13:00 +3°C° 0,1 mm 5 m/s 736 mmHg 74%
    14:00 +2°C° 0 mm 5 m/s 737 mmHg 73%
    15:00 +2°C° 0 mm 5 m/s 738 mmHg 72%
    16:00 +1°C° 0 mm 5 m/s 739 mmHg 71%
    17:00 +1°C° 0 mm 5 m/s 739 mmHg 70%
    18:00 -1°C° 0 mm 6 m/s 740 mmHg 70%
    19:00 -2°C° 0 mm 6 m/s 741 mmHg 69%
    20:00 -2°C° 0 mm 6 m/s 742 mmHg 69%
    21:00 -2°C° 0 mm 6 m/s 743 mmHg 68%
    22:00 -2°C° 0 mm 5 m/s 743 mmHg 68%
    23:00 -2°C° 0,1 mm 5 m/s 744 mmHg 71%

    Après-demain, 18 Janvier, Jeudi

    Heure Température Précipitation Vent Pression Humidité
    00:00 -1°C° 0,1 mm 5 m/s 744 mmHg 74%
    01:00 -1°C° 0,1 mm 5 m/s 745 mmHg 77%
    02:00 -1°C° 0,2 mm 5 m/s 745 mmHg 75%
    03:00 -2°C° 0,2 mm 6 m/s 746 mmHg 73%
    04:00 -2°C° 0,2 mm 6 m/s 746 mmHg 71%
    05:00 -2°C° 0 mm 6 m/s 746 mmHg 72%
    06:00 -1°C° 0 mm 5 m/s 747 mmHg 73%
    07:00 -2°C° 0 mm 5 m/s 747 mmHg 75%
    08:00 -1°C° 0 mm 5 m/s 748 mmHg 72%
    09:00 0°C° 0 mm 5 m/s 748 mmHg 69%
    10:00 +1°C° 0 mm 5 m/s 748 mmHg 66%
    11:00 +1°C° 0,1 mm 5 m/s 747 mmHg 65%
    12:00 +3°C° 0,1 mm 4 m/s 747 mmHg 64%
    13:00 +3°C° 0,1 mm 4 m/s 746 mmHg 63%
    14:00 +2°C° 0,2 mm 5 m/s 745 mmHg 64%
    15:00 +2°C° 0,2 mm 5 m/s 744 mmHg 64%
    16:00 +2°C° 0,2 mm 6 m/s 744 mmHg 64%
    17:00 +1°C° 0 mm 5 m/s 743 mmHg 64%
    18:00 +1°C° 0 mm 5 m/s 742 mmHg 65%
    19:00 +1°C° 0 mm 5 m/s 742 mmHg 66%
    20:00 +1°C° 0,1 mm 6 m/s 742 mmHg 66%
    21:00 +1°C° 0,1 mm 6 m/s 741 mmHg 67%
    22:00 +2°C° 0,1 mm 6 m/s 741 mmHg 67%
    23:00 +2°C° 0,4 mm 6 m/s 741 mmHg 70%

    19 Janvier, Vendredi

    Heure Température Précipitation Vent Pression Humidité
    00:00 +2°C° 0,4 mm 6 m/s 741 mmHg 73%
    01:00 +2°C° 0,4 mm 6 m/s 741 mmHg 75%
    02:00 +2°C° 0,2 mm 5 m/s 740 mmHg 76%
    03:00 +2°C° 0,2 mm 5 m/s 740 mmHg 77%
    04:00 +3°C° 0,2 mm 4 m/s 740 mmHg 78%
    05:00 +3°C° 0,5 mm 3 m/s 740 mmHg 82%
    06:00 +2°C° 0,5 mm 3 m/s 741 mmHg 85%
    07:00 +3°C° 0,5 mm 2 m/s 741 mmHg 88%
    08:00 +3°C° 0,1 mm 3 m/s 741 mmHg 87%
    09:00 +3°C° 0,1 mm 3 m/s 742 mmHg 85%
    10:00 +4°C° 0,1 mm 3 m/s 742 mmHg 83%
    11:00 +4°C° 0,1 mm 4 m/s 743 mmHg 77%
    12:00 +5°C° 0,1 mm 5 m/s 743 mmHg 72%
    13:00 +6°C° 0,1 mm 5 m/s 743 mmHg 66%
    14:00 +5°C° 0 mm 5 m/s 743 mmHg 66%
    15:00 +4°C° 0 mm 4 m/s 744 mmHg 67%
    16:00 +4°C° 0 mm 4 m/s 744 mmHg 67%
    17:00 +3°C° 0 mm 3 m/s 745 mmHg 69%
    18:00 +3°C° 0 mm 3 m/s 745 mmHg 71%
    19:00 +2°C° 0 mm 3 m/s 746 mmHg 73%
    20:00 +2°C° 0 mm 3 m/s 746 mmHg 74%
    21:00 +2°C° 0 mm 3 m/s 747 mmHg 75%
    22:00 +2°C° 0 mm 3 m/s 747 mmHg 77%
    23:00 +1°C° 0 mm 3 m/s 747 mmHg 77%

    20 Janvier, Samedi

    Heure Température Précipitation Vent Pression Humidité
    00:00 +2°C° 0 mm 2 m/s 747 mmHg 78%
    01:00 +2°C° 0 mm 2 m/s 747 mmHg 79%
    02:00 +1°C° 0 mm 2 m/s 746 mmHg 80%
    03:00 +1°C° 0 mm 2 m/s 746 mmHg 81%
    04:00 +1°C° 0 mm 2 m/s 746 mmHg 81%
    05:00 +1°C° 0 mm 2 m/s 745 mmHg 82%
    06:00 +1°C° 0 mm 2 m/s 745 mmHg 83%
    07:00 -1°C° 0 mm 2 m/s 745 mmHg 83%
    08:00 +1°C° 0 mm 2 m/s 745 mmHg 81%
    09:00 +1°C° 0 mm 2 m/s 745 mmHg 79%
    10:00 +2°C° 0 mm 2 m/s 745 mmHg 76%
    11:00 +2°C° 0 mm 2 m/s 744 mmHg 73%
    12:00 +3°C° 0 mm 2 m/s 744 mmHg 70%
    13:00 +4°C° 0 mm 2 m/s 744 mmHg 67%
    14:00 +2°C° 0 mm 3 m/s 744 mmHg 69%
    15:00 +2°C° 0 mm 3 m/s 744 mmHg 72%
    16:00 +1°C° 0 mm 4 m/s 744 mmHg 74%
    17:00 0°C° 0,1 mm 4 m/s 744 mmHg 76%
    18:00 0°C° 0,1 mm 4 m/s 744 mmHg 78%
    19:00 -1°C° 0,1 mm 5 m/s 745 mmHg 80%
    20:00 -2°C° 0 mm 6 m/s 745 mmHg 79%
    21:00 -2°C° 0 mm 6 m/s 745 mmHg 77%
    22:00 -2°C° 0 mm 7 m/s 745 mmHg 76%
    23:00 -2°C° 0 mm 8 m/s 745 mmHg 76%

    21 Janvier, Dimanche

    Heure Température Précipitation Vent Pression Humidité
    00:00 -2°C° 0 mm 8 m/s 746 mmHg 76%
    01:00 -2°C° 0 mm 8 m/s 746 mmHg 76%
    02:00 -4°C° 0 mm 8 m/s 746 mmHg 76%
    03:00 -4°C° 0 mm 8 m/s 746 mmHg 75%
    04:00 -3°C° 0 mm 7 m/s 746 mmHg 75%
    05:00 -3°C° 0 mm 7 m/s 747 mmHg 75%
    06:00 -3°C° 0 mm 7 m/s 747 mmHg 76%
    07:00 -3°C° 0 mm 7 m/s 747 mmHg 76%
    08:00 -3°C° 0 mm 7 m/s 748 mmHg 74%
    09:00 -2°C° 0 mm 7 m/s 748 mmHg 72%
    10:00 -2°C° 0 mm 7 m/s 748 mmHg 70%
    11:00 -1°C° 0 mm 7 m/s 748 mmHg 68%
    12:00 0°C° 0 mm 8 m/s 748 mmHg 65%
    13:00 0°C° 0 mm 8 m/s 748 mmHg 62%
    14:00 0°C° 0 mm 7 m/s 749 mmHg 64%
    15:00 -1°C° 0 mm 6 m/s 749 mmHg 67%
    16:00 -1°C° 0 mm 6 m/s 749 mmHg 69%
    17:00 -1°C° 0 mm 5 m/s 750 mmHg 72%
    18:00 -2°C° 0 mm 5 m/s 750 mmHg 75%
    19:00 -2°C° 0 mm 5 m/s 751 mmHg 78%
    20:00 -2°C° 0 mm 5 m/s 751 mmHg 79%
    21:00 -4°C° 0 mm 5 m/s 752 mmHg 80%
    22:00 -4°C° 0 mm 5 m/s 752 mmHg 80%
    23:00 -4°C° 0 mm 5 m/s 752 mmHg 80%
    Voir plus